Time-05,TemperatureF,Dew PointF,Humidity,Sea Level PressureIn,VisibilityMPH,Wind Direction,Wind SpeedMPH,Gust SpeedMPH,PrecipitationIn,Events,Conditions,WindDirDegrees,DateUTC
6:00 AM,75.2,75.2,100,29.88,6.2,Calm,Calm,-,N/A,,Overcast,0,2012-11-18 11:00:00
7:00 AM,75,,,,7,Calm,Calm,,,,Haze,,2012-11-18 12:00:00
7:00 AM,75.2,75.2,100,29.89,6.2,Calm,Calm,-,N/A,,Overcast,0,2012-11-18 12:00:00
8:00 AM,77.0,77.0,100,29.91,6.2,Calm,Calm,-,N/A,,Mostly Cloudy,0,2012-11-18 13:00:00
9:00 AM,77.0,77.0,100,29.92,6.2,Calm,Calm,-,N/A,,Mostly Cloudy,0,2012-11-18 14:00:00
10:00 AM,80,76,85,,9,Calm,Calm,,,,Haze,,2012-11-18 15:00:00
10:00 AM,80.6,41.0,24,29.90,6.2,Calm,Calm,-,N/A,,Mostly Cloudy,0,2012-11-18 15:00:00
11:00 AM,82.4,77.0,84,29.88,6.2,Calm,Calm,-,N/A,,Mostly Cloudy,0,2012-11-18 16:00:00
12:00 PM,84.2,77.0,79,29.84,6.2,Calm,Calm,-,N/A,,Mostly Cloudy,0,2012-11-18 17:00:00
1:00 PM,87,77,65,,11,WSW,6.7,,,,Haze,250,2012-11-18 18:00:00
1:00 PM,87.8,77.0,70,29.80,6.2,WSW,5.8,-,N/A,,Mostly Cloudy,250,2012-11-18 18:00:00
2:00 PM,89.6,77.0,66,29.77,6.2,West,5.8,-,N/A,,Mostly Cloudy,260,2012-11-18 19:00:00
3:00 PM,87.8,77.0,70,29.76,6.2,West,5.8,-,N/A,,Scattered Clouds,260,2012-11-18 20:00:00
4:00 PM,90,77,59,,9,Calm,Calm,,,,Haze,,2012-11-18 21:00:00
4:00 PM,89.6,77.0,66,29.76,6.2,Calm,Calm,-,N/A,,Scattered Clouds,0,2012-11-18 21:00:00
5:00 PM,87.8,77.0,70,29.76,6.2,Calm,Calm,-,N/A,,Partly Cloudy,0,2012-11-18 22:00:00
6:00 PM,82.4,77.0,84,29.79,6.2,NNW,6.9,-,N/A,,Mostly Cloudy,340,2012-11-18 23:00:00
7:00 PM,80,77,89,,7,NNW,6.7,,,Thunderstorm,Thunderstorm,330,2012-11-19 00:00:00
7:00 PM,80.6,77.0,89,29.83,6.2,NNW,6.9,-,N/A,,Mostly Cloudy,330,2012-11-19 00:00:00
8:00 PM,84.2,77.0,79,29.86,6.2,Calm,Calm,-,N/A,Rain-Thunderstorm,Light Thunderstorms and Rain,0,2012-11-19 01:00:00